Time,TemperatureF,DewpointF,PressureIn,WindDirection,WindDirectionDegrees,WindSpeedMPH,WindSpeedGustMPH,Humidity,HourlyPrecipIn,Conditions,Clouds,dailyrainin,SolarRadiationWatts/m^2,SoftwareType,DateUTC
2013-06-30 00:02:00,47.0,43.0,-100.00,North,10,6.0,9.0,86,0.00,,,0.04,0.000000,,2013-06-30 06:02:00,
2013-06-30 00:12:00,47.0,43.0,-100.00,North,10,6.0,9.0,86,0.00,,,0.04,0.000000,,2013-06-30 06:12:00,
2013-06-30 00:23:00,47.0,43.0,-100.00,North,10,6.0,9.0,86,0.00,,,0.04,0.000000,,2013-06-30 06:23:00,
2013-06-30 00:34:00,47.0,43.0,-100.00,North,10,6.0,9.0,86,0.00,,,0.04,0.000000,,2013-06-30 06:34:00,
2013-06-30 01:02:00,47.0,42.0,-100.00,North,9,5.0,11.0,83,0.00,,,0.04,0.000000,,2013-06-30 07:02:00,
2013-06-30 01:12:00,47.0,42.0,-100.00,North,9,5.0,11.0,83,0.00,,,0.04,0.000000,,2013-06-30 07:12:00,
2013-06-30 01:22:00,47.0,42.0,-100.00,North,9,5.0,11.0,83,0.00,,,0.04,0.000000,,2013-06-30 07:22:00,
2013-06-30 01:33:00,47.0,42.0,-100.00,North,9,5.0,11.0,83,0.00,,,0.04,0.000000,,2013-06-30 07:33:00,
2013-06-30 02:02:00,45.0,40.0,-100.00,North,2,6.0,11.0,84,0.00,,,0.04,0.000000,,2013-06-30 08:02:00,
2013-06-30 02:12:00,45.0,40.0,-100.00,North,2,6.0,11.0,84,0.00,,,0.04,0.000000,,2013-06-30 08:12:00,
2013-06-30 02:22:00,45.0,40.0,-100.00,North,2,6.0,11.0,84,0.00,,,0.04,0.000000,,2013-06-30 08:22:00,
2013-06-30 02:33:00,45.0,40.0,-100.00,North,2,6.0,11.0,84,0.00,,,0.04,0.000000,,2013-06-30 08:33:00,
2013-06-30 03:01:00,45.0,40.0,-100.00,North,353,7.0,11.0,84,0.00,,,0.04,0.000000,,2013-06-30 09:01:00,
2013-06-30 03:12:00,45.0,40.0,-100.00,North,353,7.0,11.0,84,0.00,,,0.04,0.000000,,2013-06-30 09:12:00,
2013-06-30 03:23:00,45.0,40.0,-100.00,North,353,7.0,11.0,84,0.00,,,0.04,0.000000,,2013-06-30 09:23:00,
2013-06-30 03:33:00,45.0,40.0,-100.00,North,353,7.0,11.0,84,0.00,,,0.04,0.000000,,2013-06-30 09:33:00,
2013-06-30 04:02:00,45.0,40.0,-100.00,NNW,331,6.0,10.0,84,0.00,,,0.04,0.000000,,2013-06-30 10:02:00,
2013-06-30 04:11:00,45.0,40.0,-100.00,NNW,331,6.0,10.0,84,0.00,,,0.04,0.000000,,2013-06-30 10:11:00,
2013-06-30 04:22:00,45.0,40.0,-100.00,NNW,331,6.0,10.0,84,0.00,,,0.04,0.000000,,2013-06-30 10:22:00,
2013-06-30 04:33:00,45.0,40.0,-100.00,NNW,331,6.0,10.0,84,0.00,,,0.04,0.000000,,2013-06-30 10:33:00,
2013-06-30 05:02:00,44.0,39.0,-100.00,North,3,5.0,9.0,84,0.00,,,0.04,0.000000,,2013-06-30 11:02:00,
2013-06-30 05:11:00,44.0,39.0,-100.00,North,3,5.0,9.0,84,0.00,,,0.04,0.000000,,2013-06-30 11:11:00,
2013-06-30 05:22:00,44.0,39.0,-100.00,North,3,5.0,9.0,84,0.00,,,0.04,0.000000,,2013-06-30 11:22:00,
2013-06-30 05:33:00,44.0,39.0,-100.00,North,3,5.0,9.0,84,0.00,,,0.04,0.000000,,2013-06-30 11:33:00,
2013-06-30 06:02:00,45.0,41.0,-100.00,North,2,5.0,9.0,85,0.00,,,0.04,0.000000,,2013-06-30 12:02:00,
2013-06-30 06:11:00,45.0,41.0,-100.00,North,2,5.0,9.0,85,0.00,,,0.04,0.000000,,2013-06-30 12:11:00,
2013-06-30 06:24:00,45.0,41.0,-100.00,North,2,5.0,9.0,85,0.00,,,0.04,0.000000,,2013-06-30 12:24:00,
2013-06-30 06:33:00,45.0,41.0,-100.00,North,2,5.0,9.0,85,0.00,,,0.04,0.000000,,2013-06-30 12:33:00,
2013-06-30 07:02:00,44.0,40.0,-100.00,North,8,7.0,10.0,87,0.00,,,0.04,12.000000,,2013-06-30 13:02:00,
2013-06-30 07:12:00,44.0,40.0,-100.00,North,8,7.0,10.0,87,0.00,,,0.04,12.000000,,2013-06-30 13:12:00,
2013-06-30 07:22:00,44.0,40.0,-100.00,North,8,7.0,10.0,87,0.00,,,0.04,12.000000,,2013-06-30 13:22:00,
2013-06-30 07:33:00,44.0,40.0,-100.00,North,8,7.0,10.0,87,0.00,,,0.04,12.000000,,2013-06-30 13:33:00,
2013-06-30 08:02:00,56.0,44.0,-100.00,NW,326,3.0,10.0,64,0.00,,,0.04,122.000000,,2013-06-30 14:02:00,
2013-06-30 08:11:00,56.0,44.0,-100.00,NW,326,3.0,10.0,64,0.00,,,0.04,122.000000,,2013-06-30 14:11:00,
2013-06-30 08:22:00,56.0,44.0,-100.00,NW,326,3.0,10.0,64,0.00,,,0.04,122.000000,,2013-06-30 14:22:00,
2013-06-30 08:33:00,56.0,44.0,-100.00,NW,326,3.0,10.0,64,0.00,,,0.04,122.000000,,2013-06-30 14:33:00,
2013-06-30 09:02:00,65.0,44.0,-100.00,SSE,151,5.0,8.0,46,0.00,,,0.04,312.000000,,2013-06-30 15:02:00,
2013-06-30 09:12:00,65.0,44.0,-100.00,SSE,151,5.0,8.0,46,0.00,,,0.04,312.000000,,2013-06-30 15:12:00,
2013-06-30 09:23:00,65.0,44.0,-100.00,SSE,151,5.0,8.0,46,0.00,,,0.04,312.000000,,2013-06-30 15:23:00,
2013-06-30 09:34:00,65.0,44.0,-100.00,SSE,151,5.0,8.0,46,0.00,,,0.04,312.000000,,2013-06-30 15:34:00,
2013-06-30 10:01:00,68.0,43.0,-100.00,South,174,9.0,12.0,40,0.00,,,0.04,506.000000,,2013-06-30 16:01:00,
2013-06-30 10:11:00,68.0,43.0,-100.00,South,174,9.0,12.0,40,0.00,,,0.04,506.000000,,2013-06-30 16:11:00,
2013-06-30 10:21:00,68.0,43.0,-100.00,South,174,9.0,12.0,40,0.00,,,0.04,506.000000,,2013-06-30 16:21:00,
2013-06-30 10:34:00,68.0,43.0,-100.00,South,174,9.0,12.0,40,0.00,,,0.04,506.000000,,2013-06-30 16:34:00,
2013-06-30 11:02:00,72.0,44.0,-100.00,SSE,167,9.0,15.0,36,0.00,,,0.04,687.000000,,2013-06-30 17:02:00,
2013-06-30 11:11:00,72.0,44.0,-100.00,SSE,167,9.0,15.0,36,0.00,,,0.04,687.000000,,2013-06-30 17:11:00,
2013-06-30 11:23:00,72.0,44.0,-100.00,SSE,167,9.0,15.0,36,0.00,,,0.04,687.000000,,2013-06-30 17:23:00,
2013-06-30 11:34:00,72.0,44.0,-100.00,SSE,167,9.0,15.0,36,0.00,,,0.04,687.000000,,2013-06-30 17:34:00,
2013-06-30 12:02:00,75.0,43.0,-100.00,SSE,165,8.0,16.0,32,0.00,,,0.04,857.000000,,2013-06-30 18:02:00,
2013-06-30 12:12:00,75.0,43.0,-100.00,SSE,165,8.0,16.0,32,0.00,,,0.04,857.000000,,2013-06-30 18:12:00,
2013-06-30 12:22:00,75.0,43.0,-100.00,SSE,165,8.0,16.0,32,0.00,,,0.04,857.000000,,2013-06-30 18:22:00,
2013-06-30 12:34:00,75.0,43.0,-100.00,SSE,165,8.0,16.0,32,0.00,,,0.04,857.000000,,2013-06-30 18:34:00,
2013-06-30 13:01:00,75.0,41.0,-100.00,ESE,119,9.0,16.0,30,0.00,,,0.04,902.000000,,2013-06-30 19:01:00,
2013-06-30 13:11:00,75.0,41.0,-100.00,ESE,119,9.0,16.0,30,0.00,,,0.04,902.000000,,2013-06-30 19:11:00,
2013-06-30 13:22:00,75.0,41.0,-100.00,ESE,119,9.0,16.0,30,0.00,,,0.04,902.000000,,2013-06-30 19:22:00,
2013-06-30 13:33:00,75.0,41.0,-100.00,ESE,119,9.0,16.0,30,0.00,,,0.04,902.000000,,2013-06-30 19:33:00,
2013-06-30 14:02:00,78.0,43.0,-100.00,South,176,9.0,16.0,29,0.00,,,0.04,775.000000,,2013-06-30 20:02:00,
2013-06-30 14:11:00,78.0,43.0,-100.00,South,176,9.0,16.0,29,0.00,,,0.04,775.000000,,2013-06-30 20:11:00,
2013-06-30 14:22:00,78.0,43.0,-100.00,South,176,9.0,16.0,29,0.00,,,0.04,775.000000,,2013-06-30 20:22:00,
2013-06-30 14:34:00,78.0,43.0,-100.00,South,176,9.0,16.0,29,0.00,,,0.04,775.000000,,2013-06-30 20:34:00,
2013-06-30 15:01:00,75.0,41.0,-100.00,ENE,68,6.0,18.0,29,0.00,,,0.04,420.000000,,2013-06-30 21:01:00,
2013-06-30 15:11:00,75.0,41.0,-100.00,ENE,68,6.0,18.0,29,0.00,,,0.04,420.000000,,2013-06-30 21:11:00,
2013-06-30 15:22:00,75.0,41.0,-100.00,ENE,68,6.0,18.0,29,0.00,,,0.04,420.000000,,2013-06-30 21:22:00,
2013-06-30 15:34:00,75.0,41.0,-100.00,ENE,68,6.0,18.0,29,0.00,,,0.04,420.000000,,2013-06-30 21:34:00,
2013-06-30 16:01:00,70.0,48.0,-100.00,South,190,11.0,17.0,45,0.00,,,0.01,170.000000,,2013-06-30 22:01:00,
2013-06-30 16:11:00,70.0,48.0,-100.00,South,190,11.0,17.0,45,0.00,,,0.01,170.000000,,2013-06-30 22:11:00,
2013-06-30 16:22:00,70.0,48.0,-100.00,South,190,11.0,17.0,45,0.00,,,0.01,170.000000,,2013-06-30 22:22:00,
2013-06-30 16:34:00,70.0,48.0,-100.00,South,190,11.0,17.0,45,0.00,,,0.01,170.000000,,2013-06-30 22:34:00,
2013-06-30 17:11:00,58.0,49.0,-100.00,ENE,62,16.0,33.0,73,0.01,,,0.02,272.000000,,2013-06-30 23:11:00,
2013-06-30 17:22:00,58.0,49.0,-100.00,ENE,62,16.0,33.0,73,0.01,,,0.02,272.000000,,2013-06-30 23:22:00,
2013-06-30 17:33:00,58.0,49.0,-100.00,ENE,62,16.0,33.0,73,0.01,,,0.02,272.000000,,2013-06-30 23:33:00,
2013-06-30 18:01:00,56.0,49.0,-100.00,NNE,30,9.0,17.0,76,0.03,,,0.05,41.000000,,2013-07-01 00:01:00,
2013-06-30 18:11:00,56.0,49.0,-100.00,NNE,30,9.0,17.0,76,0.03,,,0.05,41.000000,,2013-07-01 00:11:00,
2013-06-30 18:22:00,56.0,49.0,-100.00,NNE,30,9.0,17.0,76,0.03,,,0.05,41.000000,,2013-07-01 00:22:00,
2013-06-30 18:33:00,56.0,49.0,-100.00,NNE,30,9.0,17.0,76,0.03,,,0.05,41.000000,,2013-07-01 00:33:00,
2013-06-30 19:01:00,59.0,50.0,-100.00,NW,323,14.0,20.0,73,0.01,,,0.05,164.000000,,2013-07-01 01:01:00,
2013-06-30 19:11:00,59.0,50.0,-100.00,NW,323,14.0,20.0,73,0.01,,,0.05,164.000000,,2013-07-01 01:11:00,
2013-06-30 19:22:00,59.0,50.0,-100.00,NW,323,14.0,20.0,73,0.01,,,0.05,164.000000,,2013-07-01 01:22:00,
2013-06-30 19:33:00,59.0,50.0,-100.00,NW,323,14.0,20.0,73,0.01,,,0.05,164.000000,,2013-07-01 01:33:00,
2013-06-30 20:02:00,58.0,49.0,-100.00,NNW,342,12.0,25.0,71,0.00,,,0.05,90.000000,,2013-07-01 02:02:00,
2013-06-30 20:11:00,58.0,49.0,-100.00,NNW,342,12.0,25.0,71,0.00,,,0.05,90.000000,,2013-07-01 02:11:00,
2013-06-30 20:22:00,58.0,49.0,-100.00,NNW,342,12.0,25.0,71,0.00,,,0.05,90.000000,,2013-07-01 02:22:00,
2013-06-30 20:33:00,58.0,49.0,-100.00,NNW,342,12.0,25.0,71,0.00,,,0.05,90.000000,,2013-07-01 02:33:00,
2013-06-30 21:01:00,57.0,45.0,-100.00,North,351,7.0,14.0,65,0.00,,,0.05,51.000000,,2013-07-01 03:01:00,
2013-06-30 21:11:00,57.0,45.0,-100.00,North,351,7.0,14.0,65,0.00,,,0.05,51.000000,,2013-07-01 03:11:00,
2013-06-30 21:23:00,57.0,45.0,-100.00,North,351,7.0,14.0,65,0.00,,,0.05,51.000000,,2013-07-01 03:23:00,
2013-06-30 21:33:00,57.0,45.0,-100.00,North,351,7.0,14.0,65,0.00,,,0.05,51.000000,,2013-07-01 03:33:00,
2013-06-30 22:01:00,53.0,48.0,-100.00,NE,47,6.0,17.0,82,0.00,,,0.05,0.000000,,2013-07-01 04:01:00,
2013-06-30 22:11:00,53.0,48.0,-100.00,NE,47,6.0,17.0,82,0.00,,,0.05,0.000000,,2013-07-01 04:11:00,
2013-06-30 22:22:00,53.0,48.0,-100.00,NE,47,6.0,17.0,82,0.00,,,0.05,0.000000,,2013-07-01 04:22:00,
2013-06-30 22:32:00,53.0,48.0,-100.00,NE,47,6.0,17.0,82,0.00,,,0.05,0.000000,,2013-07-01 04:32:00,
2013-06-30 23:01:00,56.0,49.0,-100.00,NW,304,12.0,20.0,76,0.00,,,0.05,0.000000,,2013-07-01 05:01:00,
2013-06-30 23:11:00,56.0,49.0,-100.00,NW,304,12.0,20.0,76,0.00,,,0.05,0.000000,,2013-07-01 05:11:00,
2013-06-30 23:22:00,56.0,49.0,-100.00,NW,304,12.0,20.0,76,0.00,,,0.05,0.000000,,2013-07-01 05:22:00,
2013-06-30 23:33:00,56.0,49.0,-100.00,NW,304,12.0,20.0,76,0.00,,,0.05,0.000000,,2013-07-01 05:33:00,